Location: Kampernieuwstad
(52.5135°N, 5.8742°E)
Time: 11:00:52
(UTC+00:00)

PSLV R/B - Pass Details

Date: 15 May 2026
Orbit: 586 x 678 km, 97.9° (Epoch: 8 June)

Event Time Altitude Azimuth Distance (km) Brightness Sun altitude
Rises 23:09:21 0° 15° (NNE) 2,872 8.3 -18.3°
Reaches altitude 10° 23:11:31 10° 17° (NNE) 1,975 7.2 -18.3°
Maximum altitude 23:15:49 77° 104° (ESE) 643 3.5 -18.3°
Enters shadow 23:17:21 40° 183° (S) 928 3.9 -18.4°
